Airfield :
LOGIN :

Register | Disclaimer

   EN    FR    IT 

 










Legend :    VFR   Marginal VFR   IFR   Intensive IFR   Very Intensive IFR
Visi :
Ceiling :
>= 8 km
>= 3000ft
5 to 8 km
1000 to 3000 ft
1500m to 5 km
500 to 1000 ft
800 to 1500m
200 to 500 ft
< 800m
< 200 ft
Symbols :   Thunderstorms  Fog  Heavy snow  Heavy precipitations  Wind > 20 kt
SIGMETs :     Misc.  Thunderstorms  Icing  Turbulence  Mountain Waves  Volcanic Ashes







- Airport Elevation : 249 ft


EGOS - RAF Shawbury

CURRENT METAR :
  • 200650Z 23015KT 9999 FEW012 SCT018 BKN250 11/10 Q1011 WHT

EXPIRED METARs :
  • 200550Z 22016KT 9999 FEW014 SCT100 BKN250 11/09 Q1012 BLU
  • 200450Z AUTO 23015KT 9999 BKN022/// 10/09 Q1013

TAF TAF EGOS
Valid from the 20 at 07:00 until the 20 at 15:00 UTC


200646Z 2007/2015 23013G20KT 9999 BKN020
PROB30
TEMPO 2007/2010 5000 -RADZ SCT012
BECMG 2009/2011 25015G25KT SCT025
No reported NOTAMs for that airfield.



MET'MAP, your aeronautical weather chart ! - Copyright ORBIFLY December 2007 - Disclaimer

ORBIFLY MET'MAP TEAM :

Programming & Development : Alexandra Zaïnal
Concept & Development : Baudouin d'Aumeries
Co-Development & Prog : Marc-Olivier Méhu
Technical & hardware support : Manuel Goepfert

Contact : metmap@orbifly.com




SOURCES & CREDITS :

   NOAA